Location: Calgary
(51.0833°N, 114.0833°W)
Time: 06:50:11
(UTC-06:00)

ISS - Visible Passes

Search period start: 22 July 2018 00:00
Search period end: 01 August 2018 00:00
Orbit: 402 x 408 km, 51.6° (Epoch: 22 July)

Date Brightness Start Highest point End Pass type
(mag) Time Alt. Az. Time Alt. Az. Time Alt. Az.
22 Jul -3.9 00:13:10 10° WSW 00:16:27 88° SSE 00:19:46 10° E visible
22 Jul -3.9 01:49:43 10° W 01:53:01 86° NNE 01:56:19 10° E visible
22 Jul -3.3 03:26:17 10° W 03:29:21 37° SSW 03:32:25 10° SE visible
22 Jul -3.9 23:21:05 10° WSW 23:24:21 71° SSE 23:27:38 10° E visible
23 Jul -3.8 00:57:35 10° W 01:00:52 79° N 01:03:28 15° E visible
23 Jul -2.7 02:34:06 10° W 02:36:01 30° W 02:36:01 30° W visible
23 Jul -3.7 22:29:04 10° SW 22:32:16 51° SSE 22:35:28 10° E visible
24 Jul -3.8 00:05:25 10° W 00:08:42 79° N 00:12:00 10° E visible
24 Jul -3.6 01:41:57 10° W 01:44:44 57° WSW 01:44:44 57° WSW visible
24 Jul -3.8 23:13:15 10° W 23:16:32 87° N 23:19:51 10° E visible
25 Jul -3.9 00:49:48 10° W 00:53:06 89° SSW 00:53:51 51° ESE visible
25 Jul -1.1 02:26:25 10° W 02:26:28 10° W 02:26:28 10° W visible
25 Jul -3.9 22:21:07 10° WSW 22:24:22 78° SSE 22:27:40 10° E visible
25 Jul -3.8 23:57:38 10° W 00:00:56 81° N 00:03:07 19° E visible
26 Jul -2.2 01:34:10 10° W 01:35:44 24° W 01:35:44 24° W visible
26 Jul -3.7 23:05:26 10° W 23:08:44 78° N 23:12:01 10° E visible
27 Jul -3.8 00:41:58 10° W 00:45:04 64° SW 00:45:04 64° SW visible
27 Jul -3.7 22:13:14 10° W 22:16:31 83° N 22:19:49 10° E visible
27 Jul -3.9 23:49:46 10° W 23:53:04 84° SSW 23:54:27 32° ESE visible
28 Jul -1.4 01:26:27 10° W 01:27:05 14° W 01:27:05 14° W visible
28 Jul -3.8 22:57:34 10° W 23:00:52 84° N 23:03:52 12° E visible
29 Jul -2.8 00:34:07 10° W 00:36:30 34° WSW 00:36:30 34° WSW visible
29 Jul -3.7 22:05:21 10° W 22:08:37 78° N 22:11:54 10° E visible
29 Jul -3.8 23:41:52 10° W 23:45:06 58° SSW 23:45:56 41° SE visible
30 Jul -3.9 22:49:38 10° W 22:52:54 77° SSW 22:55:24 16° ESE visible
31 Jul -1.9 00:26:23 10° W 00:28:01 20° WSW 00:28:01 20° WSW visible
31 Jul -3.8 21:57:24 10° W 22:00:40 87° N 22:03:58 10° E visible
31 Jul -3.1 23:33:58 10° W 23:37:00 35° SSW 23:37:30 33° S visible
